User: anonymous   Login
Location: Oshawa
(43.9000°N, 78.8670°W)
Time: 10:59:57
(UTC-04:00)
Language:

Cosmos 1805 Rocket - Orbit

View from above orbital plane
View from above orbital plane
View from above satellite
View from above satellite

Ground track
Ground track

The orbit data is extracted from the following two-line orbital elements,

1 17192U 86097B   15185.67188060  .00000204  00000-0  21992-4 0  9999
2 17192 082.5051 206.0974 0015539 295.5776 203.3423 14.83314064542906
Epoch (UTC): 04 July 2015 16:07:30
Eccentricity: 0.0015539
inclination: 82.5051°
perigee height: 608 km
apogee height: 630 km
right ascension of ascending node: 206.0974°
argument of perigee: 295.5776°
revolutions per day: 14.83314064
mean anomaly at epoch: 203.3423°
orbit number at epoch: 54290

The dashed part of the orbit path shows where the satellite is in the earth's shadow,  

DLR